PulseSat

PulseSat

WGS F7 (USA 263)

Last updated on Dec. 16, 2018, 12:08 a.m. UTC

1 40746U 15036A   18349.28071970  .00000030  00000-0  00000+0 0  9997
2 40746   0.0190 356.7066 0000338 236.0930 127.1973  1.00270280 12398
UTC
Height (km)
Latitude
Longitude
Inclination
Orbital Period

Next 30 passes for location: Hong Kong

Rise time Rise Azimuth (degrees) Set time Set Azimuth (degrees) Duration Max altitude (degrees)

No matching passes for this satellites

PulseSat

PulseSat is the new satellites software and hardware trackering solution by Pulsely.
Satellite Two Line Element Set source: US Air Force Space Command

Download PulseSat for iOS
© 2017 Pulsely Limited